Location: Arbon
(43.0005°N, 0.7472°E)
Time: 21:27:44
(UTC+00:00)

Explorer 7 - Pass Details

Date: 02 December 2020
Orbit: 484 x 678 km, 50.3° (Epoch: 25 January)

Event Time Altitude Azimuth Distance (km) Brightness Sun altitude
Rises 01:25:56 0° 251° (WSW) 2,960 - -60.5°
Reaches altitude 10° 01:28:22 10° 255° (WSW) 2,026 - -60.2°
Maximum altitude 01:32:58 59° 335° (NNW) 712 - -59.5°
Drops below altitude 10° 01:37:19 10° 56° (NE) 1,915 - -58.8°
Sets 01:39:34 0° 60° (ENE) 2,783 - -58.5°
